SCP
0 0 0 0 0 0 0 0 0 0 0 0 0 0 0 0 0 0 0 0 0 0 0 0 0 0 0 0 0 0 0 0 0 0 0 0 0 0 0 0 0 0 0 0
0 0 0 0 0 0 0 0 0 0 0 0 0 0 0 0 0 0 0 0 0 0 0 0 0 0 0 0 0 0 0 0 0 0 0 0 0 0 0 0 0 0 0 0
0 0 0 0 0 0 0 0 0 0 0 0 0 -0 0 0 0 0 0 0 0 0 0 0 0 0 0 0 0 0 0 0 0 0 0 0 0 0 0 0 0 0 0 0
0 0 0 0 0 0 0 0 0 0 0 0 0 -0 0 0 0 0 0 0 -0 -0 0 0 0 0 0 0 0 0 0 0 0 0 0 0 0 0 0 0 0 0 0 0
0 0 0 0 0 0 0 0 0 0 0 0 0 0 0 0 0 0 0 0 0 0 0 0 0 0 0 0 0 0 0 0 0 0 0 0 0 0 0 0 0 0 0 0
0 0 0 0 0 0 0 0 0 0 0 0 0 0 0 0 0 0 0 0 0 0 0 0 0 0 0 0 0 0 0 0 0 0 0 0 0 0 0 0 0 0 0 0
0 0 0 0 0 0 0 0 0 0 0 0 0 0 0 0 0 0 0 0 0 0 0 0 0 0 0 0 0 0 0 0 0 0 0 0 0 0 0 0 0 0 0 0
0 0 0 0 0 0 0 0 0 0 0 0 0 0 0 0 0 0 0 0 0 0 0 0 0 0 0 0 0 0 0 0 0 0 0 0 0 0 0 0 0 0 0 0
0 0 0 0 0 0 0 0 0 0 0 0 0 0 0 0 0 0 0 0 0 0 0 0 0 0 0 0 0 0 0 0 0 0 0 0 0 0 0 0 0 0 0 0
0 0 0 0 0 0 0 0 0 0 0 0 0 0 0 0 0 0 0 0 0 0 0 0 0 0 0 0 0 0 0 0 0 0 0 0 0 0 0 0 0 0 0 0
0 0 0 0 0 0 0 0 0 0 0 0 0 0 0 0 0 0 0 0 0 0 0 0 0 0 0 0 0 0 0 0 0 0 0 0 0 0 0 0 0 0 0 0
0 0 0 0 0 0 0 0 0 0 0 0 0 0 0 0 0 0 0 0 0 0 0 0 0 0 0 0 0 0 0 0 0 0 0 0 0 0 0 0 0 0 0 0
0 0 0 0 0 0 0 0 0 0 0 0 0 0 0 0 0 0 0 0 0 0 0 0 0 0 0 0 0 0 0 0 0 0 0 0 0 0 0 0 0 0 0 0
0 0 0 0 0 0 0 0 0 0 0 0 0 0 0 0 0 0 0 0 0 0 0 0 0 0 0 0 0 0 0 0 0 0 0 0 0 0 0 0 0 0 0 0
0 0 0 0 0 0 0 0 0 0 0 0 0 0 0 0 0 0 0 0 0 0 0 0 0 0 0 0 0 0 0 0 0 0 0 0 0 0 0 0 0 0 0 0
0 1 0 0 0 0 0 0 0 0 0 0 0 0 0 0 0 0 0 0 0 0 0 0 0 0 0 0 0 0 0 0 0 0 0 0 0 0 0 0 0 0 0 0
0 0 0 0 0 0 0 0 0 0 0 0 0 0 0 0 0 0 0 0 0 0 0 0 0 0 0 0 0 0 0 0 0 0 0 0 0 0 0 0 0 0 0 0
0 0 0 0 0 0 0 0 0 0 0 0 0 0 0 0 0 0 0 0 0 0 0 0 0 0 0 0 0 0 0 0 0 0 0 0 0 0 0 0 0 0 0 0
0 0 0 0 0 0 0 0 0 0 0 0 0 0 0 0 0 0 0 0 0 0 0 0 0 0 0 0 0 0 0 0 0 0 0 0 0 0 0 0 0 0 0 0
0 0 0 0 0 0 0 0 0 0 0 0 0 0 0 0 0 0 0 0 0 0 0 0 0 0 0 0 0 0 0 0 0 0 0 0 0 0 0 0 0 0 0 0
0 0 0 0 0 0 0 0 0 0 0 0 0 0 0 0 0 0 0 0 0 0 0 0 0 0 0 0 0 0 0 0 0 0 0 0 0 0 0 0 0 0 0 0
0 0 0 0 0 0 0 0 0 0 0 0 0 0 0 0 0 0 0 0 0 0 0 0 0 0 0 0 0 0 0 0 0 0 0 0 0 0 0 0 0 -0 -0 -0
-0 0 0 0 0 0 0 0 0 0 0 0 0 0 0 0 0 0 0 0 0 0 0 0 0 0 0 0 0 0 0 0 0 0 0 0 0 0 0 0 0 -0 -0 -0
0 0 0 0 0 0 0 0 0 0 0 0 0 0 0 0 0 0 0 0 0 0 0 0 0 0 0 0 0 0 0 0 0 0 0 0 0 0 0 0 -0 -0 -0 -0
0 0 0 0 0 0 0 0 0 0 0 0 0 0 0 0 0 0 0 0 0 0 0 0 0 0 0 0 0 0 0 0 0 0 0 0 0 0 0 0 0 0 -0 -0
0 0 0 0 0 0 0 0 0 0 0 0 0 0 0 0 0 0 0 0 0 0 0 0 0 0 0 0 0 0 0 0 0 0 0 0 0 0 0 0 0 0 -0 -0
Wind_Speed_500mb
32 17 34 39 40 15 19 27 21 11 7 15 36 47 42 45 44 42 44 42 46 52 52 64 67 66 65 60 57 59 60 54 48 47 47 49 57 60 62 61 62 58 56 55
17 41 27 22 31 36 17 23 22 7 9 12 27 46 44 49 55 63 62 60 60 59 63 58 53 53 58 56 60 58 55 55 54 52 52 54 53 56 59 62 59 57 57 56
38 9 44 29 32 36 38 36 20 11 4 19 21 45 47 38 63 66 61 61 59 64 66 60 49 50 50 51 51 54 53 50 52 55 57 58 58 56 55 58 56 54 52 51
33 40 29 34 44 38 37 27 31 22 9 15 3 23 29 9 15 21 44 47 52 48 44 43 41 42 47 47 46 44 46 50 56 61 64 63 60 56 47 49 52 48 44 40
22 26 35 39 35 39 20 18 29 31 27 23 34 17 18 7 18 21 29 35 32 28 26 24 25 27 32 37 41 46 51 53 55 59 60 59 56 50 41 39 46 43 38 32
34 14 38 28 21 38 17 19 16 14 15 18 38 31 38 35 24 25 30 28 25 20 19 24 22 22 24 27 31 35 39 42 44 46 44 45 42 38 34 32 33 34 34 32
30 23 9 27 26 27 32 29 11 12 14 23 8 23 43 9 11 18 26 28 19 19 19 19 21 18 18 19 20 22 25 27 28 30 30 30 31 29 26 24 24 23 24 25
29 22 36 27 29 22 46 39 15 20 20 21 19 26 17 6 47 42 29 32 23 17 22 24 22 19 17 18 16 12 14 17 19 22 25 26 28 29 28 29 28 29 29 31
31 35 16 28 25 36 36 40 35 17 3 7 20 25 26 22 19 24 30 27 26 25 26 29 32 31 29 27 23 21 20 21 21 23 20 20 22 26 26 25 29 32 31 32
17 19 21 35 32 40 26 34 21 22 17 24 26 32 27 12 27 34 28 28 28 34 38 40 39 38 37 35 34 32 31 29 28 26 24 21 19 17 17 15 17 18 17 18
26 24 8 29 40 42 19 27 22 17 22 16 18 24 34 38 29 23 33 40 40 44 41 42 40 40 39 37 36 33 31 30 28 25 24 22 19 16 13 10 7 5 6 10
55 21 24 36 21 37 48 45 50 18 29 33 29 30 12 4 17 31 21 32 41 44 46 47 47 42 37 34 31 28 26 22 20 17 15 13 11 8 5 4 7 9 13 17
37 18 12 11 11 13 39 40 39 37 8 28 24 27 22 18 4 11 29 42 46 45 44 45 43 40 37 32 27 22 17 13 10 7 2 6 10 12 14 19 25 27 29 32
45 35 43 37 41 26 34 54 44 47 28 32 33 42 40 18 29 25 36 44 49 48 46 42 40 36 34 32 27 22 15 8 7 11 13 14 19 28 32 31 31 40 44 42
30 29 50 52 46 22 37 45 57 48 51 38 46 46 48 44 23 40 51 49 49 50 47 45 42 35 28 24 19 15 13 12 10 15 20 25 28 32 40 37 42 41 41 45
44 12 28 44 50 42 26 40 46 56 59 54 46 42 51 63 27 43 54 59 58 55 47 47 41 36 28 22 19 16 11 5 7 15 19 22 25 29 32 35 37 39 40 39
36 25 21 42 53 45 31 35 45 50 59 58 51 57 57 28 31 50 58 62 59 54 52 48 42 36 29 21 15 10 9 10 12 14 16 18 19 20 22 26 29 34 36 39
16 13 17 19 20 36 25 45 48 44 44 57 42 41 56 53 32 33 49 65 58 55 54 47 40 31 25 20 14 11 8 7 8 9 12 16 20 24 28 33 37 42 42 46
30 21 12 7 25 24 15 25 55 45 63 52 48 60 34 16 25 20 47 46 54 56 52 44 37 31 25 19 14 10 8 6 6 9 14 18 24 30 35 40 45 50 56 57
33 35 23 6 17 21 39 14 32 36 33 52 58 56 32 43 21 22 54 60 59 52 46 41 34 28 22 17 13 10 6 2 6 11 18 26 32 38 42 46 52 56 61 64
15 29 36 36 15 8 23 12 29 23 22 17 56 69 56 30 19 37 65 57 53 49 43 36 32 27 21 16 11 6 2 4 10 17 24 31 38 44 51 55 60 64 69 73
26 18 22 34 27 25 22 13 35 10 7 11 20 33 53 38 39 52 56 58 53 47 42 36 31 26 20 15 10 6 2 8 14 21 29 35 42 48 55 62 66 71 76 81
8 15 11 14 12 8 7 4 9 10 13 15 28 39 57 54 51 55 58 54 50 46 42 38 32 26 19 13 8 4 8 15 22 28 35 41 45 50 54 59 63 68 72 77
3 4 6 4 7 7 13 16 12 13 21 28 30 45 56 62 62 61 59 57 54 47 43 39 34 26 17 9 6 10 17 24 31 36 40 44 47 50 53 57 61 65 69 74
3 15 13 6 6 6 26 28 23 25 29 38 42 48 51 57 55 58 54 50 47 47 44 37 30 22 13 6 10 18 24 29 33 35 39 43 48 52 56 57 60 62 64 67
11 10 11 9 14 2 5 50 41 37 40 43 51 50 46 50 54 54 52 49 47 39 33 27 20 12 7 10 16 22 26 30 33 37 41 44 49 52 55 61 65 61 67 70
Wind_Direction_500mb
185 200 207 203 209 222 223 215 219 210 201 224 240 257 257 250 250 249 248 250 255 257 261 260 260 262 268 265 259 251 254 258 255 253 258 259 257 253 252 255 261 260 257 257
186 226 207 214 215 217 210 218 226 234 223 226 259 262 264 258 252 248 249 251 256 264 266 263 264 264 266 261 253 252 252 250 249 252 262 264 263 260 256 254 257 260 260 261
209 174 198 184 199 211 225 229 214 236 154 235 283 272 256 250 250 248 250 252 253 253 259 264 264 264 256 258 254 255 256 255 255 258 261 259 255 259 258 253 252 253 255 259
229 222 195 206 219 204 226 223 229 219 233 254 187 282 263 193 223 227 235 241 240 244 251 261 263 258 253 257 261 259 259 258 257 255 253 253 256 255 258 256 255 257 257 256
211 187 194 207 211 200 238 181 202 212 231 267 241 267 257 191 241 221 224 223 225 236 244 254 256 258 258 257 258 255 254 251 256 254 246 245 245 247 249 253 255 258 260 260
216 210 201 210 196 190 144 135 149 197 223 244 234 226 261 242 234 219 204 222 217 219 236 245 255 250 250 250 251 252 248 248 251 246 241 236 240 244 249 255 260 261 256 253
215 192 190 197 180 187 183 167 172 205 210 240 208 217 248 291 325 241 227 226 229 223 213 210 214 222 225 224 221 227 232 236 233 224 217 218 225 230 238 245 254 256 264 262
203 205 202 185 194 180 200 190 191 213 223 250 164 233 241 218 222 237 222 241 213 199 194 187 176 168 166 169 171 184 202 205 204 207 207 210 220 226 230 235 241 243 245 245
206 225 186 188 190 168 201 212 220 268 84 259 223 250 283 237 243 235 229 229 231 173 159 161 151 148 147 151 152 158 156 155 163 157 166 189 203 217 226 231 241 244 247 249
204 222 190 193 198 213 195 194 196 218 224 231 247 251 252 199 225 229 226 217 177 161 160 154 152 147 141 134 126 127 126 124 124 129 143 150 162 173 194 196 219 229 236 246
218 226 143 162 203 188 182 194 217 223 229 229 253 244 242 242 233 218 226 219 179 164 157 158 152 147 143 140 137 134 131 128 127 125 122 123 123 127 133 149 164 199 248 273
211 233 222 203 213 219 204 203 194 192 206 226 244 252 132 168 245 248 233 174 168 164 163 163 161 155 148 143 140 141 139 139 134 131 133 139 143 152 175 246 266 281 290 297
183 208 193 184 237 228 223 216 215 227 267 215 216 249 263 207 149 190 167 166 164 161 163 162 159 160 161 160 158 154 152 154 154 153 202 297 284 276 280 291 294 290 290 296
189 219 217 220 214 181 202 214 211 211 216 225 222 244 247 228 224 168 167 171 167 165 166 167 167 170 171 170 170 170 170 189 244 273 283 279 288 295 296 292 296 300 299 299
202 221 218 232 245 233 206 212 211 213 220 221 231 227 251 249 204 190 178 169 172 173 174 176 177 179 180 182 185 194 206 211 236 267 277 291 298 288 298 305 303 298 301 303
210 217 207 225 234 233 226 216 213 215 220 226 238 243 244 255 222 182 184 179 182 181 177 182 183 188 192 198 201 208 210 225 259 255 267 279 289 293 295 301 303 306 314 318
198 213 201 232 225 224 227 219 212 218 220 224 224 232 243 231 206 193 193 192 185 182 183 185 189 193 196 200 201 204 217 240 260 276 281 288 298 309 314 320 320 320 325 325
186 185 209 213 174 228 225 225 223 225 225 227 227 233 242 233 206 199 201 192 183 180 184 188 192 195 198 204 210 216 233 263 285 296 312 325 331 332 333 332 331 329 329 330
202 207 227 243 231 261 267 216 209 202 232 227 222 233 227 134 147 203 195 181 179 182 186 189 194 199 200 204 205 208 222 244 285 316 326 333 337 336 336 334 333 331 329 330
211 200 219 211 231 234 236 202 198 199 239 228 219 229 186 151 193 212 184 189 185 185 188 190 192 193 194 194 194 196 195 250 332 335 339 340 339 336 334 332 329 327 325 323
187 200 215 213 230 254 248 139 151 165 230 212 211 220 175 192 222 183 173 174 182 183 184 186 186 188 188 184 174 170 158 331 337 338 336 335 333 331 328 327 325 323 321 319
189 187 226 218 217 233 152 123 181 197 75 164 164 179 177 173 141 149 159 166 171 175 177 179 180 178 172 168 169 180 258 321 325 326 327 327 326 325 324 323 323 322 321 320
198 195 182 217 203 354 210 130 204 186 153 177 162 166 167 153 151 154 158 165 169 173 173 173 173 173 173 170 180 242 302 314 317 321 322 321 320 320 321 322 323 323 324 324
163 242 180 152 186 206 247 242 205 194 182 172 165 165 173 162 160 158 160 163 166 167 166 166 166 167 173 188 248 296 313 317 318 319 321 322 324 325 327 329 330 329 329 326
141 154 163 252 232 292 246 220 199 176 165 157 158 163 164 162 155 157 157 160 161 163 163 164 165 170 184 231 296 307 310 314 317 321 325 328 329 330 329 329 329 328 328 325
200 166 193 238 160 58 237 194 181 173 164 160 159 157 159 167 161 161 157 161 160 160 159 161 165 180 226 278 296 307 314 315 319 328 328 329 328 328 329 330 329 330 330 327
Wind_Speed_850mb
32 17 34 39 40 15 19 27 21 11 7 15 36 47 42 45 44 42 44 42 46 52 52 64 67 66 65 60 57 59 60 54 48 47 47 49 57 60 62 61 62 58 56 55
17 41 27 22 31 36 17 23 22 7 9 12 27 46 44 49 55 63 62 60 60 59 63 58 53 53 58 56 60 58 55 55 54 52 52 54 53 56 59 62 59 57 57 56
38 9 44 29 32 36 38 36 20 11 4 19 21 45 47 38 63 66 61 61 59 64 66 60 49 50 50 51 51 54 53 50 52 55 57 58 58 56 55 58 56 54 52 51
33 40 29 34 44 38 37 27 31 22 9 15 3 23 29 9 15 21 44 47 52 48 44 43 41 42 47 47 46 44 46 50 56 61 64 63 60 56 47 49 52 48 44 40
22 26 35 39 35 39 20 18 29 31 27 23 34 17 18 7 18 21 29 35 32 28 26 24 25 27 32 37 41 46 51 53 55 59 60 59 56 50 41 39 46 43 38 32
34 14 38 28 21 38 17 19 16 14 15 18 38 31 38 35 24 25 30 28 25 20 19 24 22 22 24 27 31 35 39 42 44 46 44 45 42 38 34 32 33 34 34 32
30 23 9 27 26 27 32 29 11 12 14 23 8 23 43 9 11 18 26 28 19 19 19 19 21 18 18 19 20 22 25 27 28 30 30 30 31 29 26 24 24 23 24 25
29 22 36 27 29 22 46 39 15 20 20 21 19 26 17 6 47 42 29 32 23 17 22 24 22 19 17 18 16 12 14 17 19 22 25 26 28 29 28 29 28 29 29 31
31 35 16 28 25 36 36 40 35 17 3 7 20 25 26 22 19 24 30 27 26 25 26 29 32 31 29 27 23 21 20 21 21 23 20 20 22 26 26 25 29 32 31 32
17 19 21 35 32 40 26 34 21 22 17 24 26 32 27 12 27 34 28 28 28 34 38 40 39 38 37 35 34 32 31 29 28 26 24 21 19 17 17 15 17 18 17 18
26 24 8 29 40 42 19 27 22 17 22 16 18 24 34 38 29 23 33 40 40 44 41 42 40 40 39 37 36 33 31 30 28 25 24 22 19 16 13 10 7 5 6 10
55 21 24 36 21 37 48 45 50 18 29 33 29 30 12 4 17 31 21 32 41 44 46 47 47 42 37 34 31 28 26 22 20 17 15 13 11 8 5 4 7 9 13 17
37 18 12 11 11 13 39 40 39 37 8 28 24 27 22 18 4 11 29 42 46 45 44 45 43 40 37 32 27 22 17 13 10 7 2 6 10 12 14 19 25 27 29 32
45 35 43 37 41 26 34 54 44 47 28 32 33 42 40 18 29 25 36 44 49 48 46 42 40 36 34 32 27 22 15 8 7 11 13 14 19 28 32 31 31 40 44 42
30 29 50 52 46 22 37 45 57 48 51 38 46 46 48 44 23 40 51 49 49 50 47 45 42 35 28 24 19 15 13 12 10 15 20 25 28 32 40 37 42 41 41 45
44 12 28 44 50 42 26 40 46 56 59 54 46 42 51 63 27 43 54 59 58 55 47 47 41 36 28 22 19 16 11 5 7 15 19 22 25 29 32 35 37 39 40 39
36 25 21 42 53 45 31 35 45 50 59 58 51 57 57 28 31 50 58 62 59 54 52 48 42 36 29 21 15 10 9 10 12 14 16 18 19 20 22 26 29 34 36 39
16 13 17 19 20 36 25 45 48 44 44 57 42 41 56 53 32 33 49 65 58 55 54 47 40 31 25 20 14 11 8 7 8 9 12 16 20 24 28 33 37 42 42 46
30 21 12 7 25 24 15 25 55 45 63 52 48 60 34 16 25 20 47 46 54 56 52 44 37 31 25 19 14 10 8 6 6 9 14 18 24 30 35 40 45 50 56 57
33 35 23 6 17 21 39 14 32 36 33 52 58 56 32 43 21 22 54 60 59 52 46 41 34 28 22 17 13 10 6 2 6 11 18 26 32 38 42 46 52 56 61 64
15 29 36 36 15 8 23 12 29 23 22 17 56 69 56 30 19 37 65 57 53 49 43 36 32 27 21 16 11 6 2 4 10 17 24 31 38 44 51 55 60 64 69 73
26 18 22 34 27 25 22 13 35 10 7 11 20 33 53 38 39 52 56 58 53 47 42 36 31 26 20 15 10 6 2 8 14 21 29 35 42 48 55 62 66 71 76 81
8 15 11 14 12 8 7 4 9 10 13 15 28 39 57 54 51 55 58 54 50 46 42 38 32 26 19 13 8 4 8 15 22 28 35 41 45 50 54 59 63 68 72 77
3 4 6 4 7 7 13 16 12 13 21 28 30 45 56 62 62 61 59 57 54 47 43 39 34 26 17 9 6 10 17 24 31 36 40 44 47 50 53 57 61 65 69 74
3 15 13 6 6 6 26 28 23 25 29 38 42 48 51 57 55 58 54 50 47 47 44 37 30 22 13 6 10 18 24 29 33 35 39 43 48 52 56 57 60 62 64 67
11 10 11 9 14 2 5 50 41 37 40 43 51 50 46 50 54 54 52 49 47 39 33 27 20 12 7 10 16 22 26 30 33 37 41 44 49 52 55 61 65 61 67 70
Wind_Direction_850mb
185 200 207 203 209 222 223 215 219 210 201 224 240 257 257 250 250 249 248 250 255 257 261 260 260 262 268 265 259 251 254 258 255 253 258 259 257 253 252 255 261 260 257 257
186 226 207 214 215 217 210 218 226 234 223 226 259 262 264 258 252 248 249 251 256 264 266 263 264 264 266 261 253 252 252 250 249 252 262 264 263 260 256 254 257 260 260 261
209 174 198 184 199 211 225 229 214 236 154 235 283 272 256 250 250 248 250 252 253 253 259 264 264 264 256 258 254 255 256 255 255 258 261 259 255 259 258 253 252 253 255 259
229 222 195 206 219 204 226 223 229 219 233 254 187 282 263 193 223 227 235 241 240 244 251 261 263 258 253 257 261 259 259 258 257 255 253 253 256 255 258 256 255 257 257 256
211 187 194 207 211 200 238 181 202 212 231 267 241 267 257 191 241 221 224 223 225 236 244 254 256 258 258 257 258 255 254 251 256 254 246 245 245 247 249 253 255 258 260 260
216 210 201 210 196 190 144 135 149 197 223 244 234 226 261 242 234 219 204 222 217 219 236 245 255 250 250 250 251 252 248 248 251 246 241 236 240 244 249 255 260 261 256 253
215 192 190 197 180 187 183 167 172 205 210 240 208 217 248 291 325 241 227 226 229 223 213 210 214 222 225 224 221 227 232 236 233 224 217 218 225 230 238 245 254 256 264 262
203 205 202 185 194 180 200 190 191 213 223 250 164 233 241 218 222 237 222 241 213 199 194 187 176 168 166 169 171 184 202 205 204 207 207 210 220 226 230 235 241 243 245 245
206 225 186 188 190 168 201 212 220 268 84 259 223 250 283 237 243 235 229 229 231 173 159 161 151 148 147 151 152 158 156 155 163 157 166 189 203 217 226 231 241 244 247 249
204 222 190 193 198 213 195 194 196 218 224 231 247 251 252 199 225 229 226 217 177 161 160 154 152 147 141 134 126 127 126 124 124 129 143 150 162 173 194 196 219 229 236 246
218 226 143 162 203 188 182 194 217 223 229 229 253 244 242 242 233 218 226 219 179 164 157 158 152 147 143 140 137 134 131 128 127 125 122 123 123 127 133 149 164 199 248 273
211 233 222 203 213 219 204 203 194 192 206 226 244 252 132 168 245 248 233 174 168 164 163 163 161 155 148 143 140 141 139 139 134 131 133 139 143 152 175 246 266 281 290 297
183 208 193 184 237 228 223 216 215 227 267 215 216 249 263 207 149 190 167 166 164 161 163 162 159 160 161 160 158 154 152 154 154 153 202 297 284 276 280 291 294 290 290 296
189 219 217 220 214 181 202 214 211 211 216 225 222 244 247 228 224 168 167 171 167 165 166 167 167 170 171 170 170 170 170 189 244 273 283 279 288 295 296 292 296 300 299 299
202 221 218 232 245 233 206 212 211 213 220 221 231 227 251 249 204 190 178 169 172 173 174 176 177 179 180 182 185 194 206 211 236 267 277 291 298 288 298 305 303 298 301 303
210 217 207 225 234 233 226 216 213 215 220 226 238 243 244 255 222 182 184 179 182 181 177 182 183 188 192 198 201 208 210 225 259 255 267 279 289 293 295 301 303 306 314 318
198 213 201 232 225 224 227 219 212 218 220 224 224 232 243 231 206 193 193 192 185 182 183 185 189 193 196 200 201 204 217 240 260 276 281 288 298 309 314 320 320 320 325 325
186 185 209 213 174 228 225 225 223 225 225 227 227 233 242 233 206 199 201 192 183 180 184 188 192 195 198 204 210 216 233 263 285 296 312 325 331 332 333 332 331 329 329 330
202 207 227 243 231 261 267 216 209 202 232 227 222 233 227 134 147 203 195 181 179 182 186 189 194 199 200 204 205 208 222 244 285 316 326 333 337 336 336 334 333 331 329 330
211 200 219 211 231 234 236 202 198 199 239 228 219 229 186 151 193 212 184 189 185 185 188 190 192 193 194 194 194 196 195 250 332 335 339 340 339 336 334 332 329 327 325 323
187 200 215 213 230 254 248 139 151 165 230 212 211 220 175 192 222 183 173 174 182 183 184 186 186 188 188 184 174 170 158 331 337 338 336 335 333 331 328 327 325 323 321 319
189 187 226 218 217 233 152 123 181 197 75 164 164 179 177 173 141 149 159 166 171 175 177 179 180 178 172 168 169 180 258 321 325 326 327 327 326 325 324 323 323 322 321 320
198 195 182 217 203 354 210 130 204 186 153 177 162 166 167 153 151 154 158 165 169 173 173 173 173 173 173 170 180 242 302 314 317 321 322 321 320 320 321 322 323 323 324 324
163 242 180 152 186 206 247 242 205 194 182 172 165 165 173 162 160 158 160 163 166 167 166 166 166 167 173 188 248 296 313 317 318 319 321 322 324 325 327 329 330 329 329 326
141 154 163 252 232 292 246 220 199 176 165 157 158 163 164 162 155 157 157 160 161 163 163 164 165 170 184 231 296 307 310 314 317 321 325 328 329 330 329 329 329 328 328 325
200 166 193 238 160 58 237 194 181 173 164 160 159 157 159 167 161 161 157 161 160 160 159 161 165 180 226 278 296 307 314 315 319 328 328 329 328 328 329 330 329 330 330 327